Stone Corral
DateTemperatureDew Point
05/03 - 08:00 PM69.2°51.4°
05/03 - 07:45 PM70.3°51.5°
05/03 - 07:30 PM71.1°52.0°
05/03 - 07:15 PM71.8°51.6°
05/03 - 07:00 PM72.3°50.8°
05/03 - 06:45 PM73.1°51.0°
05/03 - 06:30 PM73.2°50.6°
05/03 - 06:15 PM73.9°51.0°
05/03 - 06:00 PM75.1°51.5°
05/03 - 05:45 PM75.4°52.1°
05/03 - 05:30 PM75.7°52.2°
05/03 - 05:15 PM76.2°52.5°
05/03 - 05:00 PM76.4°52.7°
05/03 - 04:45 PM76.4°53.0°
05/03 - 04:30 PM77.2°53.9°
05/03 - 04:15 PM76.9°53.8°
05/03 - 04:00 PM77.6°54.0°
05/03 - 03:45 PM78.4°54.9°
05/03 - 03:30 PM77.9°55.2°
05/03 - 03:15 PM77.8°55.0°
05/03 - 03:00 PM77.3°55.0°
05/03 - 02:45 PM79.0°55.5°
05/03 - 02:30 PM79.4°56.4°
05/03 - 02:15 PM77.2°55.8°
05/03 - 02:00 PM77.2°55.8°
05/03 - 01:45 PM77.1°56.3°
05/03 - 01:30 PM76.2°56.0°
05/03 - 01:15 PM76.6°56.5°
05/03 - 01:00 PM74.5°56.5°
05/03 - 12:45 PM74.4°57.0°
05/03 - 12:30 PM72.8°56.9°
05/03 - 12:15 PM71.2°57.0°
05/03 - 12:00 PM68.7°56.2°
05/03 - 11:45 AM67.7°56.0°
05/03 - 11:30 AM67.1°56.1°
05/03 - 11:15 AM65.7°55.5°
05/03 - 11:00 AM65.5°55.6°
05/03 - 10:45 AM65.1°56.1°
05/03 - 10:30 AM63.8°56.0°
05/03 - 10:15 AM62.7°55.9°
05/03 - 10:00 AM61.5°55.3°
05/03 - 09:45 AM60.9°55.4°
05/03 - 09:30 AM60.4°55.4°
05/03 - 09:15 AM60.1°55.8°
05/03 - 09:00 AM59.8°55.5°
05/03 - 08:45 AM59.7°55.7°
05/03 - 08:30 AM59.4°56.0°
05/03 - 08:15 AM59.0°56.9°
05/03 - 08:00 AM58.4°57.8°
05/03 - 07:45 AM57.8°57.7°
05/03 - 07:30 AM57.2°57.2°
05/03 - 07:15 AM56.6°56.6°
05/03 - 07:00 AM55.7°55.7°
05/03 - 06:45 AM55.0°55.0°
05/03 - 06:30 AM54.5°54.4°
05/03 - 06:15 AM53.9°53.7°
05/03 - 06:00 AM53.8°53.4°
05/03 - 05:45 AM54.0°53.6°
05/03 - 05:30 AM54.1°53.5°
05/03 - 05:15 AM54.3°53.6°
05/03 - 05:00 AM54.6°53.8°
05/03 - 04:45 AM54.9°54.0°
05/03 - 04:30 AM55.3°54.2°
05/03 - 04:15 AM55.5°54.0°
05/03 - 04:00 AM55.9°54.2°
05/03 - 03:45 AM56.1°54.0°
05/03 - 03:30 AM56.6°53.7°
05/03 - 03:15 AM57.5°53.6°
05/03 - 03:00 AM58.8°54.0°
05/03 - 02:45 AM60.5°54.5°
05/03 - 02:30 AM62.2°54.9°
05/03 - 02:15 AM63.5°53.7°
05/03 - 02:00 AM62.3°53.6°
05/03 - 01:45 AM60.7°53.7°
05/03 - 01:30 AM61.2°54.8°
05/03 - 01:15 AM62.1°54.7°
05/03 - 01:00 AM63.2°55.0°
05/03 - 12:45 AM63.1°54.7°
05/03 - 12:30 AM62.0°54.4°
05/03 - 12:15 AM62.7°54.9°
05/03 - 12:00 AM64.0°54.6°
05/02 - 11:45 PM64.9°54.3°
05/02 - 11:30 PM66.0°52.9°
05/02 - 11:15 PM68.3°51.4°
05/02 - 11:00 PM70.5°52.0°
05/02 - 10:45 PM72.7°50.7°
05/02 - 10:30 PM72.8°49.9°
05/02 - 10:15 PM72.5°51.0°
05/02 - 10:00 PM72.7°49.7°
05/02 - 09:45 PM72.1°50.2°
05/02 - 09:30 PM71.3°49.8°
05/02 - 09:15 PM71.1°50.2°
05/02 - 09:00 PM70.2°48.6°
05/02 - 08:45 PM70.0°48.5°
05/02 - 08:30 PM70.2°48.9°
05/02 - 08:15 PM71.1°48.7°
05/02 - 08:00 PM72.9°49.0°
05/02 - 07:45 PM74.9°48.6°
05/02 - 07:30 PM77.6°49.0°
05/02 - 07:15 PM80.2°49.4°
05/02 - 07:00 PM81.9°48.2°
05/02 - 06:45 PM83.8°48.9°
05/02 - 06:30 PM85.2°48.7°
05/02 - 06:15 PM86.5°47.8°
05/02 - 06:00 PM87.6°47.6°
05/02 - 05:45 PM88.5°46.5°
05/02 - 05:30 PM89.0°46.6°
05/02 - 05:15 PM89.6°45.8°
05/02 - 05:00 PM90.2°46.7°
05/02 - 04:45 PM89.5°47.5°
05/02 - 04:30 PM89.6°47.8°
05/02 - 04:15 PM90.5°46.4°
05/02 - 04:00 PM90.8°48.2°
05/02 - 03:45 PM90.5°47.8°
05/02 - 03:30 PM91.0°50.1°
05/02 - 03:15 PM90.6°47.2°
05/02 - 03:00 PM91.8°46.8°
05/02 - 02:45 PM91.9°47.5°
05/02 - 02:30 PM91.7°47.3°
05/02 - 02:15 PM92.0°46.9°
05/02 - 02:00 PM92.0°47.9°
05/02 - 01:45 PM90.7°48.0°
05/02 - 01:30 PM90.5°49.9°
05/02 - 01:15 PM91.3°51.9°
05/02 - 01:00 PM89.6°55.7°
05/02 - 12:45 PM89.7°57.0°
05/02 - 12:30 PM88.6°56.8°
05/02 - 12:15 PM87.4°56.9°
05/02 - 12:00 PM88.0°56.7°
05/02 - 11:45 AM87.8°57.0°
05/02 - 11:30 AM86.7°56.9°
05/02 - 11:15 AM84.5°56.4°
05/02 - 11:00 AM83.2°56.0°
05/02 - 10:45 AM82.4°56.1°
05/02 - 10:30 AM80.5°55.4°
05/02 - 10:15 AM78.5°55.6°
05/02 - 10:00 AM76.3°55.4°
05/02 - 09:45 AM75.1°55.5°
05/02 - 09:30 AM73.5°54.7°
05/02 - 09:15 AM71.9°55.9°
05/02 - 09:00 AM70.4°55.5°
05/02 - 08:45 AM68.7°55.9°
05/02 - 08:30 AM67.8°55.4°
05/02 - 08:15 AM66.4°55.8°
05/02 - 08:00 AM64.6°55.6°
05/02 - 07:45 AM62.9°55.0°
05/02 - 07:30 AM60.8°54.6°
05/02 - 07:15 AM59.4°53.8°
05/02 - 07:00 AM58.6°53.9°
05/02 - 06:45 AM57.7°53.8°
05/02 - 06:30 AM58.4°53.8°
05/02 - 06:15 AM60.4°54.0°
05/02 - 06:00 AM61.5°53.6°
05/02 - 05:45 AM59.1°53.8°
05/02 - 05:30 AM58.0°53.6°
05/02 - 05:15 AM57.8°53.6°
05/02 - 05:00 AM58.3°53.8°
05/02 - 04:45 AM59.3°54.1°
05/02 - 04:30 AM60.7°54.7°
05/02 - 04:15 AM62.2°54.6°
05/02 - 04:00 AM62.8°53.8°
05/02 - 03:45 AM64.3°55.4°
05/02 - 03:30 AM66.3°54.2°
05/02 - 03:15 AM66.3°53.9°
05/02 - 03:00 AM63.2°54.0°
05/02 - 02:45 AM61.8°54.6°
05/02 - 02:30 AM61.3°54.5°
05/02 - 02:15 AM60.4°54.9°
05/02 - 02:00 AM60.6°55.0°
05/02 - 01:45 AM61.5°55.6°
05/02 - 01:30 AM62.2°55.6°
05/02 - 01:15 AM62.3°55.3°
05/02 - 01:00 AM63.1°55.8°
05/02 - 12:45 AM63.1°55.1°
05/02 - 12:30 AM64.0°55.3°
05/02 - 12:15 AM65.2°55.4°
05/02 - 12:00 AM67.2°55.8°
05/01 - 11:45 PM68.2°55.0°
05/01 - 11:30 PM69.6°55.1°
05/01 - 11:15 PM70.4°54.6°
05/01 - 11:00 PM70.2°54.7°
05/01 - 10:45 PM70.3°54.6°
05/01 - 10:30 PM70.0°54.7°
05/01 - 10:15 PM68.1°55.6°
05/01 - 10:00 PM67.6°57.0°
05/01 - 09:45 PM67.1°56.1°
05/01 - 09:30 PM68.2°59.2°
05/01 - 09:15 PM69.1°56.9°
05/01 - 09:00 PM72.8°57.0°
05/01 - 08:45 PM72.0°54.9°
05/01 - 08:30 PM71.8°54.8°